Simultaneous Nadir Overpasses (SNOs) Predictions

Prediction of SNOs between AQUA and NOAA-19 Satellite Orbit:

Table of predicted SNOs for the next 14.0 days since TLE Epoch: 9/16/2016
Index Date (AQUA) Time (AQUA) Lat,Lon (AQUA) SZA (AQUA ) Date (NOAA-19) Time (NOAA-19) Lat,Lon (NOAA-19) SZA (NOAA-19 ) Distance(km) Time Diff (sec)
1 09/16/2016 23:16:39 -80.91, -29.10 99.31 09/16/2016 23:16:45 -80.92, -29.26 99.29 2.95 6
2 09/19/2016 04:00:56 -80.92,-100.29 98.46 09/19/2016 03:59:45 -80.92,-100.35 98.42 1.11 71
3 09/19/2016 04:50:22 80.90, 67.63 81.51 09/19/2016 04:50:40 80.91, 67.67 81.51 1.12 18
4 09/21/2016 09:34:39 80.91, -3.61 82.37 09/21/2016 09:33:41 80.92, -3.68 82.41 1.55 58
5 09/21/2016 10:24:05 -80.91, 164.12 97.64 09/21/2016 10:24:44 -80.91, 164.11 97.65 0.53 39
6 09/23/20
